Terminal Aerodrome Forecast
Issued by NWS Cleveland, OH

Home | Current Version | Previous Version | Graphics & Text | Print | Product List | Glossary On
Versions: 1 2 3 4 5 6 7 8 9 10 11 12
000
FTUS41 KCLE 182339
TAFCAK
TAF
KCAK 182339Z 1900/1924 19006KT P6SM SKC WS020/23035KT
     FM191200 23012KT P6SM SCT250
     FM192300 25005KT P6SM SCT250=

USA.gov is the U.S. government's official web portal to all federal, state and local government web resources and services.